BAW245 EGYP-EGLL

Flight info

Callsign BAW245
Flight time N/A
Altitude 31000
Route DFO DCT 50S056W 48S054W 46S052W 42S049W 38S046W/N0490F330 34S044W 30S042W 26S040W 24S039W 22S038W 18S036W 14S034W/N0494F350 09S032W 06S031W DCT VUKIR UM661 ERETU UN857 BOTNO/N0489F370 UN857 GUNET N857 DEREV/N0478F380 N857 LZR N871 KORAL UG5 ESS UR724 OSLAD/N0443F240 UL14 VFA UN726 EVURA UN873 PORTA N873 BARDI/N0476F380 N873 NUBLO/N0480F400 N873 DELOG DCT GODEM/N0482F340 UP87 ROXOG
Aircraft B77W/H-SDE1E2E3FGHIJ2J3J4J5M1RWXY/LB1D1

Departure

Time 2026-04-28 08:48
Airport Mount Pleasant Airport / RAF Mount Pleasant (EGYP)

Arrival

Time N/A
Airport London Heathrow Airport (EGLL)
Time Latitude Longitude Altitude Speed Heading
2026-04-28 07:36 -51.82261 -58.47680 259 ft 0 kts 284°
2026-04-28 08:29 -51.82263 -58.47667 258 ft 2 kts 273°
2026-04-28 08:29 -51.82261 -58.47643 258 ft 2 kts 244°
2026-04-28 08:29 -51.82252 -58.47623 259 ft 2 kts 230°
2026-04-28 08:29 -51.82243 -58.47605 259 ft 2 kts 233°
2026-04-28 08:30 -51.82235 -58.47585 260 ft 2 kts 235°
2026-04-28 08:30 -51.82226 -58.47565 260 ft 2 kts 235°
2026-04-28 08:30 -51.82217 -58.47546 261 ft 2 kts 234°
2026-04-28 08:30 -51.82209 -58.47526 261 ft 2 kts 235°
2026-04-28 08:31 -51.82201 -58.47506 262 ft 2 kts 240°
2026-04-28 08:31 -51.82194 -58.47485 262 ft 2 kts 244°
2026-04-28 08:31 -51.82188 -58.47463 262 ft 2 kts 248°
2026-04-28 08:31 -51.82183 -58.47440 262 ft 2 kts 252°
2026-04-28 08:32 -51.82179 -58.47416 262 ft 2 kts 256°
2026-04-28 08:32 -51.82175 -58.47392 262 ft 2 kts 260°
2026-04-28 08:32 -51.82173 -58.47369 262 ft 2 kts 263°
2026-04-28 08:32 -51.82172 -58.47345 262 ft 2 kts 267°
2026-04-28 08:33 -51.82172 -58.47321 262 ft 2 kts 271°
2026-04-28 08:33 -51.82173 -58.47297 262 ft 2 kts 275°
2026-04-28 08:33 -51.82175 -58.47273 262 ft 2 kts 279°
2026-04-28 08:33 -51.82177 -58.47249 262 ft 2 kts 283°
2026-04-28 08:34 -51.82181 -58.47226 262 ft 2 kts 284°
2026-04-28 08:34 -51.82185 -58.47203 262 ft 2 kts 284°
2026-04-28 08:34 -51.82188 -58.47185 262 ft 0 kts 283°
2026-04-28 08:34 -51.82183 -58.47203 262 ft 3 kts 302°
2026-04-28 08:35 -51.82161 -58.47221 262 ft 3 kts 352°
2026-04-28 08:35 -51.82132 -58.47209 262 ft 7 kts 19°
2026-04-28 08:35 -51.82084 -58.47187 262 ft 6 kts 13°
2026-04-28 08:35 -51.82041 -58.47190 262 ft 6 kts 344°
2026-04-28 08:36 -51.82004 -58.47224 262 ft 6 kts 317°
2026-04-28 08:36 -51.81980 -58.47282 261 ft 6 kts 291°
2026-04-28 08:36 -51.81970 -58.47355 262 ft 5 kts 282°
2026-04-28 08:36 -51.81965 -58.47390 262 ft 0 kts 282°
2026-04-28 08:37 -51.81965 -58.47391 262 ft 0 kts 282°
2026-04-28 08:40 -51.81963 -58.47401 262 ft 1 kts 283°
2026-04-28 08:40 -51.81958 -58.47429 262 ft 3 kts 288°
2026-04-28 08:40 -51.81945 -58.47474 262 ft 5 kts 306°
2026-04-28 08:40 -51.81913 -58.47514 262 ft 6 kts 338°
2026-04-28 08:41 -51.81864 -58.47522 262 ft 7 kts
2026-04-28 08:41 -51.81811 -58.47477 261 ft 10 kts 52°
2026-04-28 08:41 -51.81803 -58.47349 259 ft 12 kts 102°
2026-04-28 08:41 -51.81804 -58.47342 259 ft 0 kts 103°
2026-04-28 08:42 -51.81805 -58.47339 259 ft 0 kts 104°
2026-04-28 08:42 -51.81807 -58.47326 258 ft 1 kts 105°
2026-04-28 08:42 -51.81811 -58.47302 258 ft 3 kts 105°
2026-04-28 08:42 -51.81817 -58.47268 258 ft 3 kts 105°
2026-04-28 08:43 -51.81827 -58.47211 258 ft 7 kts 104°
2026-04-28 08:43 -51.81844 -58.47102 259 ft 12 kts 104°
2026-04-28 08:43 -51.81871 -58.46941 259 ft 17 kts 105°
2026-04-28 08:43 -51.81905 -58.46732 259 ft 21 kts 103°
2026-04-28 08:44 -51.81948 -58.46475 259 ft 25 kts 104°
2026-04-28 08:44 -51.81997 -58.46170 255 ft 30 kts 104°
2026-04-28 08:44 -51.82059 -58.45812 251 ft 35 kts 105°
2026-04-28 08:44 -51.82131 -58.45393 244 ft 41 kts 106°
2026-04-28 08:45 -51.82205 -58.44952 238 ft 40 kts 103°
2026-04-28 08:45 -51.82277 -58.44532 234 ft 38 kts 103°
2026-04-28 08:45 -51.82301 -58.44231 229 ft 21 kts 77°
2026-04-28 08:45 -51.82279 -58.44001 225 ft 20 kts 98°
2026-04-28 08:46 -51.82365 -58.43919 223 ft 11 kts 228°
2026-04-28 08:46 -51.82370 -58.44002 225 ft 0 kts 279°
2026-04-28 08:47 -51.82367 -58.44027 226 ft 5 kts 282°
2026-04-28 08:47 -51.82348 -58.44145 228 ft 24 kts 286°
2026-04-28 08:48 -51.82243 -58.44752 237 ft 85 kts 285°
2026-04-28 08:48 -51.82038 -58.45974 254 ft 139 kts 285°
2026-04-28 08:48 -51.81736 -58.47723 320 ft 180 kts 288°
2026-04-28 08:48 -51.81507 -58.49622 1014 ft 168 kts 265°
2026-04-28 08:49 -51.81963 -58.51397 1266 ft 184 kts 228°
2026-04-28 08:49 -51.83104 -58.52453 1215 ft 214 kts 192°
2026-04-28 08:49 -51.84646 -58.52216 1271 ft 241 kts 160°
2026-04-28 08:49 -51.86038 -58.50498 1434 ft 263 kts 126°
2026-04-28 08:50 -51.86756 -58.47735 1845 ft 272 kts 97°
2026-04-28 08:50 -51.86601 -58.44751 2363 ft 273 kts 68°
2026-04-28 08:50 -51.85602 -58.42189 2962 ft 269 kts 39°
2026-04-28 08:50 -51.84063 -58.40554 3554 ft 267 kts 25°
2026-04-28 08:51 -51.82457 -58.39095 4205 ft 270 kts 37°
2026-04-28 08:51 -51.81226 -58.36816 4783 ft 275 kts 58°
2026-04-28 08:51 -51.80389 -58.34007 5341 ft 279 kts 68°
2026-04-28 08:51 -51.79731 -58.31070 5933 ft 280 kts 70°
2026-04-28 08:52 -51.79105 -58.28085 6484 ft 283 kts 70°
2026-04-28 08:52 -51.78476 -58.25069 7024 ft 285 kts 71°
2026-04-28 08:52 -51.77841 -58.22035 7565 ft 288 kts 70°
2026-04-28 08:52 -51.77201 -58.18982 8072 ft 290 kts 70°
2026-04-28 08:53 -51.76554 -58.15900 8599 ft 293 kts 71°
2026-04-28 08:53 -51.75892 -58.12752 9080 ft 296 kts 71°
2026-04-28 08:53 -51.75232 -58.09623 9611 ft 297 kts 71°
2026-04-28 08:53 -51.74554 -58.06410 9922 ft 308 kts 71°
2026-04-28 08:54 -51.73843 -58.03048 10062 ft 325 kts 71°
2026-04-28 08:54 -51.73103 -57.99550 10210 ft 341 kts 71°
2026-04-28 08:54 -51.72338 -57.95938 10401 ft 356 kts 71°
2026-04-28 08:54 -51.71524 -57.92103 10614 ft 371 kts 71°
2026-04-28 08:55 -51.70669 -57.88079 10885 ft 384 kts 71°
2026-04-28 08:55 -51.69787 -57.84007 11374 ft 390 kts 68°
2026-04-28 08:55 -51.68564 -57.80090 11915 ft 395 kts 57°
2026-04-28 08:55 -51.67056 -57.76882 12432 ft 398 kts 47°
2026-04-28 08:56 -51.64878 -57.73713 13021 ft 402 kts 36°
2026-04-28 08:56 -51.62583 -57.71154 13657 ft 404 kts 33°
2026-04-28 08:56 -51.60250 -57.68620 14288 ft 408 kts 33°
2026-04-28 08:56 -51.57916 -57.66080 14908 ft 413 kts 33°
2026-04-28 08:57 -51.55542 -57.63494 15630 ft 414 kts 33°
2026-04-28 08:57 -51.53135 -57.60870 16292 ft 418 kts 33°
2026-04-28 08:57 -51.50699 -57.58214 16889 ft 422 kts 33°
2026-04-28 08:57 -51.48273 -57.55570 17505 ft 426 kts 33°
2026-04-28 08:58 -51.45830 -57.52909 18113 ft 429 kts 33°
2026-04-28 08:58 -51.43328 -57.50188 18707 ft 433 kts 33°
2026-04-28 08:58 -51.40846 -57.47490 19281 ft 437 kts 33°
2026-04-28 08:58 -51.38324 -57.44752 19803 ft 441 kts 33°
2026-04-28 08:59 -51.35771 -57.41984 20316 ft 446 kts 33°
2026-04-28 08:59 -51.33198 -57.39197 20848 ft 449 kts 33°
2026-04-28 08:59 -51.30610 -57.36398 21344 ft 454 kts 33°
2026-04-28 08:59 -51.27996 -57.33575 21809 ft 458 kts 33°
2026-04-28 09:00 -51.25346 -57.30717 22296 ft 462 kts 33°
2026-04-28 09:00 -51.22655 -57.27819 22758 ft 466 kts 33°
2026-04-28 09:00 -51.19929 -57.24887 23186 ft 470 kts 33°
2026-04-28 09:00 -51.17205 -57.21962 23582 ft 475 kts 33°
2026-04-28 09:01 -51.14455 -57.19013 23975 ft 480 kts 33°
2026-04-28 09:01 -51.11700 -57.16061 24344 ft 485 kts 33°
2026-04-28 09:01 -51.08886 -57.13052 24757 ft 489 kts 33°
2026-04-28 09:01 -51.06996 -57.11034 25075 ft 490 kts 33°
2026-04-28 09:02 -51.03237 -57.07025 25691 ft 492 kts 33°
2026-04-28 09:02 -51.00379 -57.03982 26103 ft 495 kts 33°
2026-04-28 09:02 -50.97508 -57.00930 26485 ft 499 kts 33°
2026-04-28 09:02 -50.94606 -56.97851 26917 ft 501 kts 33°
2026-04-28 09:03 -50.91706 -56.94777 27342 ft 503 kts 33°
2026-04-28 09:03 -50.88825 -56.91729 27754 ft 504 kts 33°
2026-04-28 09:03 -50.85881 -56.88620 28142 ft 507 kts 33°
2026-04-28 09:03 -50.82927 -56.85503 28502 ft 510 kts 33°
2026-04-28 09:04 -50.79970 -56.82389 28922 ft 511 kts 33°
2026-04-28 09:04 -50.77002 -56.79268 29465 ft 508 kts 33°
2026-04-28 09:04 -50.74042 -56.76160 30110 ft 504 kts 33°
2026-04-28 09:04 -50.71107 -56.73084 30596 ft 503 kts 33°
2026-04-28 09:05 -50.68213 -56.70056 30665 ft 504 kts 33°
2026-04-28 09:05 -50.62372 -56.63958 30676 ft 500 kts 33°
2026-04-28 09:06 -50.56539 -56.57887 30678 ft 500 kts 33°
2026-04-28 09:06 -50.50699 -56.51826 30684 ft 499 kts 33°
2026-04-28 09:07 -50.44904 -56.45829 30676 ft 498 kts 32°
2026-04-28 09:07 -50.39085 -56.39826 30667 ft 498 kts 33°
2026-04-28 09:08 -50.33258 -56.33832 30670 ft 497 kts 32°
2026-04-28 09:08 -50.27457 -56.27882 30671 ft 496 kts 32°
2026-04-28 09:09 -50.21631 -56.21925 30676 ft 495 kts 32°
2026-04-28 09:09 -50.15879 -56.16061 30694 ft 494 kts 32°
2026-04-28 09:10 -50.10090 -56.10176 30690 ft 495 kts 32°
2026-04-28 09:10 -50.04281 -56.04288 30701 ft 495 kts 32°
2026-04-28 09:11 -49.98477 -55.98403 30705 ft 495 kts 33°
2026-04-28 09:11 -49.92768 -55.92412 30705 ft 495 kts 33°
2026-04-28 09:12 -49.87056 -55.86427 30708 ft 494 kts 33°
2026-04-28 09:12 -49.81374 -55.80497 30715 ft 493 kts 32°
2026-04-28 09:13 -49.75661 -55.74557 30709 ft 492 kts 32°
2026-04-28 09:13 -49.69968 -55.68658 30723 ft 491 kts 32°
2026-04-28 09:14 -49.64317 -55.62819 30728 ft 491 kts 32°
2026-04-28 09:14 -49.58642 -55.56972 30726 ft 491 kts 32°
2026-04-28 09:15 -49.52965 -55.51141 30730 ft 492 kts 32°
2026-04-28 09:15 -49.47310 -55.45349 30731 ft 490 kts 32°
2026-04-28 09:16 -49.41645 -55.39563 30738 ft 488 kts 32°
2026-04-28 09:16 -49.35988 -55.33800 30731 ft 486 kts 31°
2026-04-28 09:17 -49.30362 -55.28087 30732 ft 488 kts 31°
2026-04-28 09:17 -49.24727 -55.22379 30736 ft 486 kts 31°
2026-04-28 09:18 -49.19124 -55.16720 30740 ft 482 kts 31°
2026-04-28 09:18 -49.13524 -55.11079 30735 ft 482 kts 31°
2026-04-28 09:19 -49.07939 -55.05470 30742 ft 480 kts 31°
2026-04-28 09:19 -49.02362 -54.99883 30743 ft 479 kts 31°
2026-04-28 09:20 -48.96815 -54.94342 30739 ft 479 kts 31°
2026-04-28 09:20 -48.91267 -54.88814 30746 ft 477 kts 31°
2026-04-28 09:21 -48.85706 -54.83289 30749 ft 479 kts 31°
2026-04-28 09:21 -48.80143 -54.77776 30753 ft 478 kts 31°
2026-04-28 09:22 -48.74534 -54.72233 30763 ft 478 kts 31°
2026-04-28 09:22 -48.68957 -54.66736 30774 ft 477 kts 31°
2026-04-28 09:23 -48.63420 -54.61293 30775 ft 476 kts 31°
2026-04-28 09:23 -48.57870 -54.55853 30774 ft 476 kts 31°
2026-04-28 09:24 -48.52320 -54.50426 30778 ft 476 kts 31°
2026-04-28 09:24 -48.46761 -54.45005 30778 ft 477 kts 31°
2026-04-28 09:25 -48.41212 -54.39607 30782 ft 476 kts 31°
2026-04-28 09:25 -48.35653 -54.34215 30783 ft 475 kts 30°
2026-04-28 09:26 -48.30119 -54.28860 30782 ft 475 kts 30°
2026-04-28 09:26 -48.24578 -54.23513 30782 ft 472 kts 30°
2026-04-28 09:27 -48.16262 -54.15513 30783 ft 474 kts 30°
2026-04-28 09:27 -48.10734 -54.10215 30783 ft 474 kts 30°
2026-04-28 09:28 -48.05175 -54.04899 30782 ft 476 kts 30°
2026-04-28 09:28 -47.99617 -53.99598 30782 ft 473 kts 30°
2026-04-28 09:29 -47.94235 -53.94023 30783 ft 474 kts 33°
2026-04-28 09:29 -47.88872 -53.88384 30796 ft 473 kts 33°
2026-04-28 09:30 -47.83480 -53.82750 30810 ft 472 kts 33°
2026-04-28 09:30 -47.78092 -53.77145 30807 ft 472 kts 33°
2026-04-28 09:31 -47.72720 -53.71578 30802 ft 473 kts 32°
2026-04-28 09:31 -47.67325 -53.66004 30797 ft 472 kts 32°
2026-04-28 09:32 -47.61927 -53.60443 30802 ft 472 kts 32°
2026-04-28 09:32 -47.56578 -53.54946 30792 ft 472 kts 32°
2026-04-28 09:33 -47.51192 -53.49426 30789 ft 472 kts 32°
2026-04-28 09:33 -47.45783 -53.43898 30790 ft 471 kts 32°
2026-04-28 09:34 -47.40411 -53.38420 30786 ft 470 kts 32°
2026-04-28 09:34 -47.35026 -53.32944 30781 ft 469 kts 32°
2026-04-28 09:35 -47.29650 -53.27490 30788 ft 469 kts 32°
2026-04-28 09:35 -47.24264 -53.22041 30785 ft 470 kts 32°
2026-04-28 09:36 -47.18873 -53.16599 30789 ft 470 kts 32°
2026-04-28 09:36 -47.13493 -53.11182 30787 ft 469 kts 32°
2026-04-28 09:37 -47.08113 -53.05779 30784 ft 468 kts 32°
2026-04-28 09:37 -47.02759 -53.00415 30785 ft 468 kts 32°
2026-04-28 09:38 -46.97386 -52.95046 30786 ft 468 kts 32°
2026-04-28 09:38 -46.91976 -52.89653 30783 ft 469 kts 32°
2026-04-28 09:39 -46.86573 -52.84281 30791 ft 469 kts 32°
2026-04-28 09:39 -46.81194 -52.78944 30795 ft 470 kts 32°
2026-04-28 09:40 -46.75795 -52.73603 30802 ft 470 kts 32°
2026-04-28 09:40 -46.70370 -52.68248 30802 ft 470 kts 32°
2026-04-28 09:41 -46.64942 -52.62904 30803 ft 471 kts 32°
2026-04-28 09:41 -46.59526 -52.57585 30798 ft 471 kts 32°
2026-04-28 09:42 -46.54060 -52.52229 30801 ft 470 kts 32°
2026-04-28 09:42 -46.48672 -52.46964 30796 ft 472 kts 32°
2026-04-28 09:43 -46.43229 -52.41656 30794 ft 472 kts 32°
2026-04-28 09:43 -46.37762 -52.36340 30796 ft 472 kts 32°
2026-04-28 09:44 -46.34996 -52.33655 30931 ft 477 kts 31°
2026-04-28 09:44 -46.32231 -52.30973 31415 ft 474 kts 32°
2026-04-28 09:44 -46.29499 -52.28327 31966 ft 470 kts 32°
2026-04-28 09:44 -46.26801 -52.25717 32279 ft 471 kts 31°
2026-04-28 09:45 -46.24041 -52.23052 32484 ft 473 kts 32°
2026-04-28 09:45 -46.21309 -52.20417 32737 ft 475 kts 32°
2026-04-28 09:45 -46.15813 -52.15123 32796 ft 474 kts 32°
2026-04-28 09:46 -46.10334 -52.09860 32795 ft 472 kts 32°
2026-04-28 09:46 -46.04857 -52.04612 32788 ft 472 kts 32°
2026-04-28 09:47 -45.99353 -51.99464 32775 ft 470 kts 28°
2026-04-28 09:47 -45.93672 -51.94838 32782 ft 471 kts 27°
2026-04-28 09:48 -45.87955 -51.90220 32784 ft 471 kts 27°
2026-04-28 09:48 -45.82214 -51.85594 32786 ft 472 kts 27°
2026-04-28 09:49 -45.76487 -51.80989 32785 ft 473 kts 27°
2026-04-28 09:49 -45.70740 -51.76379 32784 ft 473 kts 27°
2026-04-28 09:50 -45.65006 -51.71789 32783 ft 473 kts 27°
2026-04-28 09:50 -45.59230 -51.67178 32775 ft 474 kts 27°
2026-04-28 09:51 -45.53511 -51.62622 32778 ft 475 kts 27°
2026-04-28 09:51 -45.47702 -51.58006 32776 ft 475 kts 27°
2026-04-28 09:52 -45.41926 -51.53426 32775 ft 475 kts 27°
2026-04-28 09:52 -45.36168 -51.48872 32779 ft 475 kts 27°
2026-04-28 09:53 -45.30400 -51.44320 32775 ft 474 kts 27°
2026-04-28 09:53 -45.24612 -51.39764 32783 ft 476 kts 27°
2026-04-28 09:54 -45.18797 -51.35197 32775 ft 477 kts 27°
2026-04-28 09:54 -45.13009 -51.30661 32783 ft 477 kts 27°
2026-04-28 09:55 -45.07209 -51.26127 32785 ft 477 kts 27°
2026-04-28 09:55 -45.01384 -51.21584 32785 ft 477 kts 27°
2026-04-28 09:56 -44.95603 -51.17086 32776 ft 476 kts 27°
2026-04-28 09:56 -44.89804 -51.12585 32770 ft 477 kts 27°
2026-04-28 09:57 -44.83947 -51.08049 32772 ft 478 kts 27°
2026-04-28 09:57 -44.78106 -51.03536 32769 ft 478 kts 27°
2026-04-28 09:58 -44.72293 -50.99055 32770 ft 478 kts 27°
2026-04-28 09:58 -44.66455 -50.94564 32768 ft 478 kts 27°
2026-04-28 09:59 -44.60645 -50.90107 32761 ft 478 kts 26°
2026-04-28 09:59 -44.54796 -50.85628 32761 ft 478 kts 26°
2026-04-28 10:00 -44.48963 -50.81175 32760 ft 479 kts 27°
2026-04-28 10:00 -44.43101 -50.76707 32762 ft 479 kts 26°
2026-04-28 10:01 -44.37260 -50.72267 32759 ft 481 kts 26°
2026-04-28 10:01 -44.31399 -50.67821 32756 ft 481 kts 26°
2026-04-28 10:02 -44.25514 -50.63367 32755 ft 481 kts 26°
2026-04-28 10:02 -44.19623 -50.58919 32760 ft 482 kts 26°
2026-04-28 10:03 -44.13736 -50.54485 32766 ft 482 kts 26°
2026-04-28 10:03 -44.07891 -50.50091 32760 ft 482 kts 26°
2026-04-28 10:04 -44.01945 -50.45632 32764 ft 482 kts 26°
2026-04-28 10:04 -43.96056 -50.41227 32757 ft 483 kts 26°
2026-04-28 10:05 -43.90140 -50.36811 32746 ft 483 kts 26°
2026-04-28 10:05 -43.84222 -50.32402 32749 ft 484 kts 25°
2026-04-28 10:06 -43.78270 -50.27979 32736 ft 484 kts 25°
2026-04-28 10:06 -43.72313 -50.23563 32744 ft 485 kts 25°
2026-04-28 10:07 -43.66349 -50.19151 32750 ft 486 kts 25°
2026-04-28 10:07 -43.60408 -50.14766 32749 ft 486 kts 25°
2026-04-28 10:08 -43.54436 -50.10368 32739 ft 486 kts 25°
2026-04-28 10:08 -43.48479 -50.05991 32741 ft 486 kts 25°
2026-04-28 10:09 -43.42490 -50.01601 32740 ft 487 kts 25°
2026-04-28 10:09 -43.36514 -49.97230 32740 ft 487 kts 25°
2026-04-28 10:10 -43.30558 -49.92884 32739 ft 488 kts 25°
2026-04-28 10:10 -43.24539 -49.88502 32744 ft 489 kts 25°
2026-04-28 10:11 -43.18525 -49.84132 32736 ft 489 kts 25°
2026-04-28 10:11 -43.12524 -49.79783 32731 ft 489 kts 24°
2026-04-28 10:12 -43.06513 -49.75435 32739 ft 491 kts 24°
2026-04-28 10:12 -43.00459 -49.71067 32741 ft 492 kts 24°
2026-04-28 10:13 -42.94418 -49.66718 32743 ft 492 kts 24°
2026-04-28 10:13 -42.88344 -49.62354 32745 ft 494 kts 24°
2026-04-28 10:14 -42.82291 -49.58015 32740 ft 494 kts 24°
2026-04-28 10:14 -42.76184 -49.53647 32745 ft 494 kts 24°
2026-04-28 10:15 -42.70115 -49.49316 32746 ft 494 kts 24°
2026-04-28 10:15 -42.64049 -49.44997 32753 ft 495 kts 24°
2026-04-28 10:16 -42.57937 -49.40655 32735 ft 494 kts 24°
2026-04-28 10:16 -42.51830 -49.36326 32743 ft 496 kts 24°
2026-04-28 10:17 -42.45740 -49.32019 32734 ft 497 kts 23°
2026-04-28 10:17 -42.39635 -49.27710 32732 ft 496 kts 23°
2026-04-28 10:18 -42.33503 -49.23392 32719 ft 496 kts 23°
2026-04-28 10:18 -42.27352 -49.19071 32730 ft 498 kts 23°
2026-04-28 10:19 -42.21231 -49.14779 32729 ft 497 kts 23°
2026-04-28 10:19 -42.15064 -49.10466 32724 ft 498 kts 23°
2026-04-28 10:20 -42.08950 -49.06199 32717 ft 499 kts 23°
2026-04-28 10:20 -42.02773 -49.01897 32725 ft 499 kts 23°
2026-04-28 10:21 -41.96672 -48.97459 32733 ft 502 kts 27°
2026-04-28 10:21 -41.90713 -48.92614 32743 ft 501 kts 27°
2026-04-28 10:22 -41.84731 -48.87781 32742 ft 500 kts 27°
2026-04-28 10:22 -41.78752 -48.82983 32741 ft 502 kts 27°
2026-04-28 10:23 -41.72782 -48.78213 32744 ft 503 kts 27°
2026-04-28 10:23 -41.66773 -48.73428 32746 ft 503 kts 27°
2026-04-28 10:24 -41.60760 -48.68655 32742 ft 503 kts 26°
2026-04-28 10:24 -41.54708 -48.63862 32742 ft 503 kts 26°
2026-04-28 10:25 -41.48689 -48.59107 32744 ft 504 kts 26°
2026-04-28 10:25 -41.42675 -48.54367 32734 ft 503 kts 26°
2026-04-28 10:26 -41.36638 -48.49621 32731 ft 505 kts 26°
2026-04-28 10:26 -41.30623 -48.44900 32739 ft 505 kts 26°
2026-04-28 10:27 -41.24562 -48.40156 32747 ft 506 kts 26°
2026-04-28 10:27 -41.18477 -48.35401 32736 ft 505 kts 26°
2026-04-28 10:28 -41.12465 -48.30714 32729 ft 504 kts 25°
2026-04-28 10:29 -41.03385 -48.23655 32725 ft 505 kts 25°
2026-04-28 10:29 -40.97300 -48.18937 32733 ft 506 kts 25°
2026-04-28 10:30 -40.91228 -48.14240 32722 ft 505 kts 25°
2026-04-28 10:30 -40.85200 -48.09586 32729 ft 506 kts 25°
2026-04-28 10:31 -40.79116 -48.04900 32727 ft 506 kts 25°
2026-04-28 10:31 -40.73013 -48.00207 32728 ft 507 kts 25°
2026-04-28 10:32 -40.66967 -47.95569 32736 ft 506 kts 25°
2026-04-28 10:32 -40.60856 -47.90892 32738 ft 506 kts 25°
2026-04-28 10:33 -40.54790 -47.86259 32730 ft 507 kts 25°
2026-04-28 10:33 -40.48692 -47.81611 32743 ft 506 kts 25°
2026-04-28 10:34 -40.42558 -47.76946 32746 ft 508 kts 25°
2026-04-28 10:34 -40.36451 -47.72311 32753 ft 507 kts 25°
2026-04-28 10:35 -40.30368 -47.67704 32758 ft 508 kts 25°
2026-04-28 10:35 -40.24220 -47.63057 32750 ft 507 kts 25°
2026-04-28 10:36 -40.18084 -47.58430 32755 ft 507 kts 25°
2026-04-28 10:36 -40.11945 -47.53810 32750 ft 509 kts 25°
2026-04-28 10:37 -40.05838 -47.49224 32775 ft 508 kts 25°
2026-04-28 10:37 -39.99704 -47.44627 32750 ft 509 kts 25°
2026-04-28 10:38 -39.93600 -47.40061 32758 ft 507 kts 25°
2026-04-28 10:38 -39.87458 -47.35477 32753 ft 507 kts 25°
2026-04-28 10:39 -39.81326 -47.30911 32738 ft 507 kts 24°
2026-04-28 10:39 -39.75155 -47.26325 32743 ft 508 kts 24°
2026-04-28 10:40 -39.69022 -47.21776 32743 ft 508 kts 24°
2026-04-28 10:40 -39.62886 -47.17234 32739 ft 507 kts 24°
2026-04-28 10:41 -39.56766 -47.12714 32744 ft 508 kts 24°
2026-04-28 10:41 -39.50615 -47.08181 32748 ft 508 kts 24°
2026-04-28 10:42 -39.44488 -47.03674 32749 ft 508 kts 24°
2026-04-28 10:42 -39.38333 -46.99155 32752 ft 509 kts 24°
2026-04-28 10:43 -39.32137 -46.94616 32756 ft 508 kts 24°
2026-04-28 10:43 -39.25979 -46.90114 32750 ft 509 kts 24°
2026-04-28 10:44 -39.19828 -46.85625 32750 ft 506 kts 24°
2026-04-28 10:44 -39.13700 -46.81165 32760 ft 507 kts 24°
2026-04-28 10:45 -39.07525 -46.76678 32770 ft 507 kts 24°
2026-04-28 10:45 -39.01403 -46.72238 32779 ft 507 kts 24°
2026-04-28 10:46 -38.95216 -46.67761 32782 ft 508 kts 24°
2026-04-28 10:46 -38.89062 -46.63316 32778 ft 507 kts 24°
2026-04-28 10:47 -38.82894 -46.58870 32777 ft 506 kts 24°
2026-04-28 10:47 -38.76743 -46.54446 32773 ft 508 kts 24°
2026-04-28 10:48 -38.70568 -46.50012 32778 ft 507 kts 24°
2026-04-28 10:48 -38.64415 -46.45604 32784 ft 508 kts 23°
2026-04-28 10:49 -38.58237 -46.41186 32783 ft 508 kts 23°
2026-04-28 10:49 -38.52044 -46.36767 32789 ft 509 kts 24°
2026-04-28 10:50 -38.45935 -46.32415 32780 ft 507 kts 22°
2026-04-28 10:50 -38.39723 -46.28001 32777 ft 509 kts 22°
2026-04-28 10:51 -38.33532 -46.23607 32785 ft 507 kts 22°
2026-04-28 10:51 -38.27361 -46.19239 32786 ft 509 kts 22°
2026-04-28 10:52 -38.21167 -46.14861 32797 ft 507 kts 22°
2026-04-28 10:52 -38.14988 -46.10503 32796 ft 506 kts 22°
2026-04-28 10:53 -38.08810 -46.06157 32800 ft 510 kts 22°
2026-04-28 10:53 -38.02616 -46.01804 32799 ft 509 kts 22°
2026-04-28 10:54 -37.96233 -45.97998 32802 ft 503 kts 16°
2026-04-28 10:54 -37.89793 -45.94589 32807 ft 502 kts 15°
2026-04-28 10:55 -37.83346 -45.91190 32810 ft 499 kts 15°
2026-04-28 10:55 -37.76954 -45.87830 32818 ft 500 kts 15°
2026-04-28 10:56 -37.70524 -45.84455 32812 ft 500 kts 15°
2026-04-28 10:56 -37.64062 -45.81073 32818 ft 502 kts 15°
2026-04-28 10:57 -37.57629 -45.77709 32820 ft 501 kts 15°
2026-04-28 10:57 -37.51181 -45.74344 32822 ft 500 kts 15°
2026-04-28 10:58 -37.44807 -45.71025 32828 ft 499 kts 15°
2026-04-28 10:58 -37.38327 -45.67659 32840 ft 501 kts 15°
2026-04-28 10:59 -37.31894 -45.64320 32839 ft 498 kts 15°
2026-04-28 10:59 -37.25505 -45.61013 32847 ft 499 kts 15°
2026-04-28 11:00 -37.19062 -45.57682 32852 ft 499 kts 15°
2026-04-28 11:00 -37.12637 -45.54369 32852 ft 500 kts 15°
2026-04-28 11:01 -37.06214 -45.51060 32849 ft 498 kts 15°
2026-04-28 11:01 -36.99810 -45.47769 32850 ft 498 kts 15°
2026-04-28 11:02 -36.93356 -45.44458 32850 ft 500 kts 15°
2026-04-28 11:02 -36.86921 -45.41163 32857 ft 500 kts 15°
2026-04-28 11:03 -36.80477 -45.37868 32862 ft 500 kts 14°
2026-04-28 11:03 -36.74044 -45.34586 32861 ft 500 kts 14°
2026-04-28 11:04 -36.67617 -45.31311 32856 ft 497 kts 14°
2026-04-28 11:04 -36.61208 -45.28055 32861 ft 501 kts 14°
2026-04-28 11:05 -36.54707 -45.24754 32872 ft 498 kts 13°
2026-04-28 11:05 -36.48262 -45.21491 32876 ft 502 kts 13°
2026-04-28 11:06 -36.41846 -45.18245 32884 ft 499 kts 13°
2026-04-28 11:06 -36.35394 -45.14989 32878 ft 500 kts 13°
2026-04-28 11:07 -36.28965 -45.11749 32885 ft 497 kts 13°
2026-04-28 11:07 -36.22543 -45.08520 32897 ft 500 kts 13°
2026-04-28 11:08 -36.16106 -45.05287 32892 ft 497 kts 13°
2026-04-28 11:08 -36.09666 -45.02061 32900 ft 499 kts 13°
2026-04-28 11:09 -36.03194 -44.98824 32907 ft 501 kts 12°
2026-04-28 11:09 -35.96734 -44.95598 32906 ft 500 kts 12°
2026-04-28 11:10 -35.90270 -44.92373 32911 ft 497 kts 12°
2026-04-28 11:10 -35.83870 -44.89187 32918 ft 495 kts 12°
2026-04-28 11:11 -35.77434 -44.85994 32921 ft 499 kts 12°
2026-04-28 11:11 -35.71015 -44.82807 32934 ft 495 kts 12°
2026-04-28 11:12 -35.64578 -44.79622 32928 ft 496 kts 12°
2026-04-28 11:12 -35.58173 -44.76459 32934 ft 499 kts 12°
2026-04-28 11:13 -35.51762 -44.73296 32926 ft 497 kts 12°
2026-04-28 11:13 -35.45301 -44.70112 32935 ft 494 kts 12°
2026-04-28 11:14 -35.38902 -44.66969 32946 ft 498 kts 12°
2026-04-28 11:14 -35.32505 -44.63828 32938 ft 495 kts 11°
2026-04-28 11:15 -35.26070 -44.60677 32949 ft 498 kts 11°
2026-04-28 11:15 -35.19655 -44.57534 32953 ft 491 kts 11°
2026-04-28 11:16 -35.13290 -44.54431 32958 ft 496 kts 11°
2026-04-28 11:16 -35.06826 -44.51277 32959 ft 492 kts 11°
2026-04-28 11:17 -35.00464 -44.48182 32953 ft 491 kts 11°
2026-04-28 11:17 -34.94047 -44.45068 32954 ft 494 kts 11°
2026-04-28 11:18 -34.87723 -44.41998 32968 ft 489 kts 11°
2026-04-28 11:18 -34.81312 -44.38897 32968 ft 494 kts 11°
2026-04-28 11:19 -34.74909 -44.35801 32990 ft 491 kts 11°
2026-04-28 11:19 -34.68568 -44.32741 32967 ft 491 kts 10°
2026-04-28 11:20 -34.62229 -44.29684 32955 ft 486 kts 10°
2026-04-28 11:20 -34.55891 -44.26642 32976 ft 492 kts 10°
2026-04-28 11:21 -34.49517 -44.23577 32978 ft 488 kts 10°
2026-04-28 11:21 -34.43200 -44.20549 32975 ft 488 kts 10°
2026-04-28 11:22 -34.36857 -44.17516 32976 ft 489 kts 10°
2026-04-28 11:22 -34.30528 -44.14488 32985 ft 485 kts
2026-04-28 11:23 -34.24224 -44.11483 32986 ft 486 kts 10°
2026-04-28 11:23 -34.17905 -44.08476 32992 ft 489 kts 10°
2026-04-28 11:24 -34.11606 -44.05478 32993 ft 486 kts
2026-04-28 11:24 -34.05313 -44.02491 33010 ft 486 kts
2026-04-28 11:25 -33.99025 -43.99507 33003 ft 488 kts 11°
2026-04-28 11:25 -33.92763 -43.96232 33013 ft 491 kts 12°
2026-04-28 11:26 -33.86494 -43.92926 33008 ft 490 kts 12°
2026-04-28 11:26 -33.80256 -43.89648 33018 ft 484 kts 12°
2026-04-28 11:27 -33.74033 -43.86400 33007 ft 491 kts 12°
2026-04-28 11:27 -33.67821 -43.83156 33017 ft 486 kts 12°
2026-04-28 11:28 -33.61576 -43.79910 33010 ft 492 kts 12°
2026-04-28 11:28 -33.55285 -43.76638 33026 ft 486 kts 12°
2026-04-28 11:29 -33.49082 -43.73422 33020 ft 486 kts 12°
2026-04-28 11:29 -33.42881 -43.70211 33026 ft 486 kts 12°
2026-04-28 11:30 -33.36686 -43.67008 33017 ft 483 kts 12°
2026-04-28 11:30 -33.27323 -43.62182 33020 ft 486 kts 12°
2026-04-28 11:31 -33.21159 -43.59002 33042 ft 479 kts 12°
2026-04-28 11:31 -33.15008 -43.55844 33015 ft 481 kts 11°
2026-04-28 11:32 -33.08863 -43.52690 33041 ft 480 kts 11°
2026-04-28 11:32 -33.02705 -43.49536 33024 ft 482 kts 11°
2026-04-28 11:33 -32.96560 -43.46389 33035 ft 479 kts 11°
2026-04-28 11:33 -32.90417 -43.43252 33048 ft 481 kts 11°
2026-04-28 11:34 -32.84261 -43.40111 33043 ft 477 kts 11°
2026-04-28 11:34 -32.78152 -43.37001 33061 ft 482 kts 11°
2026-04-28 11:35 -32.71981 -43.33860 33040 ft 476 kts 10°
2026-04-28 11:35 -32.65922 -43.30780 33012 ft 474 kts
2026-04-28 11:36 -32.59762 -43.27664 33017 ft 481 kts 10°
2026-04-28 11:36 -32.53625 -43.24551 33037 ft 475 kts 10°
2026-04-28 11:37 -32.47553 -43.21484 33104 ft 478 kts
2026-04-28 11:37 -32.44503 -43.19943 33356 ft 478 kts
2026-04-28 11:37 -32.41447 -43.18399 33721 ft 475 kts
2026-04-28 11:38 -32.38402 -43.16862 34030 ft 474 kts
2026-04-28 11:38 -32.35348 -43.15325 34184 ft 476 kts
2026-04-28 11:38 -32.32276 -43.13781 34349 ft 477 kts
2026-04-28 11:38 -32.29227 -43.12246 34621 ft 476 kts
2026-04-28 11:39 -32.26195 -43.10720 34952 ft 474 kts
2026-04-28 11:39 -32.23117 -43.09172 35033 ft 474 kts
2026-04-28 11:39 -32.17063 -43.06136 35026 ft 473 kts
2026-04-28 11:40 -32.11001 -43.03099 35028 ft 474 kts
2026-04-28 11:40 -32.04940 -43.00064 35028 ft 471 kts
2026-04-28 11:41 -31.98904 -42.97049 35032 ft 470 kts
2026-04-28 11:41 -31.92887 -42.94048 35043 ft 472 kts
2026-04-28 11:42 -31.86814 -42.91022 35048 ft 469 kts
2026-04-28 11:42 -31.80789 -42.88025 35054 ft 471 kts
2026-04-28 11:43 -31.74712 -42.85006 35054 ft 471 kts
2026-04-28 11:43 -31.68680 -42.82013 35057 ft 472 kts
2026-04-28 11:44 -31.62629 -42.79013 35049 ft 469 kts
2026-04-28 11:44 -31.56584 -42.76025 35058 ft 472 kts
2026-04-28 11:45 -31.50518 -42.73027 35056 ft 472 kts
2026-04-28 11:45 -31.44459 -42.70041 35062 ft 475 kts
2026-04-28 11:46 -31.38392 -42.67046 35054 ft 470 kts
2026-04-28 11:46 -31.32303 -42.64053 35064 ft 472 kts
2026-04-28 11:47 -31.26294 -42.61100 35064 ft 471 kts
2026-04-28 11:47 -31.20199 -42.58112 35061 ft 472 kts
2026-04-28 11:48 -31.14145 -42.55143 35065 ft 469 kts
2026-04-28 11:48 -31.08123 -42.52200 35068 ft 473 kts
2026-04-28 11:49 -31.01995 -42.49207 35070 ft 475 kts
2026-04-28 11:49 -30.95947 -42.46252 35066 ft 468 kts
2026-04-28 11:50 -30.89897 -42.43306 35070 ft 472 kts
2026-04-28 11:50 -30.83831 -42.40356 35086 ft 471 kts
2026-04-28 11:51 -30.77752 -42.37403 35084 ft 473 kts
2026-04-28 11:51 -30.71692 -42.34462 35077 ft 473 kts
2026-04-28 11:52 -30.65641 -42.31528 35060 ft 469 kts
2026-04-28 11:52 -30.59597 -42.28607 35062 ft 473 kts
2026-04-28 11:53 -30.53515 -42.25665 35063 ft 469 kts
2026-04-28 11:53 -30.47492 -42.22759 35070 ft 471 kts
2026-04-28 11:54 -30.41426 -42.19837 35066 ft 470 kts
2026-04-28 11:54 -30.35356 -42.16916 35072 ft 472 kts
2026-04-28 11:55 -30.29301 -42.14006 35070 ft 471 kts 10°
2026-04-28 11:55 -30.23216 -42.11086 35069 ft 473 kts 10°
2026-04-28 11:56 -30.17150 -42.08176 35069 ft 472 kts 10°
2026-04-28 11:56 -30.11024 -42.05246 35075 ft 473 kts 10°
2026-04-28 11:57 -30.04927 -42.02328 35073 ft 470 kts 10°
2026-04-28 11:57 -29.98885 -41.99437 35078 ft 472 kts 11°
2026-04-28 11:58 -29.92855 -41.96294 35073 ft 469 kts 12°
2026-04-28 11:58 -29.86891 -41.93177 35093 ft 475 kts 12°
2026-04-28 11:59 -29.80864 -41.90033 35097 ft 469 kts 12°
2026-04-28 11:59 -29.74896 -41.86934 35107 ft 473 kts 12°
2026-04-28 12:00 -29.68890 -41.83820 35116 ft 472 kts 12°
2026-04-28 12:00 -29.62882 -41.80710 35114 ft 473 kts 13°
2026-04-28 12:01 -29.56842 -41.77588 35117 ft 474 kts 13°
2026-04-28 12:01 -29.50800 -41.74470 35119 ft 473 kts 13°
2026-04-28 12:02 -29.44807 -41.71380 35114 ft 472 kts 13°
2026-04-28 12:02 -29.38761 -41.68271 35123 ft 477 kts 13°
2026-04-28 12:03 -29.32721 -41.65163 35122 ft 472 kts 13°
2026-04-28 12:03 -29.26678 -41.62065 35124 ft 478 kts 13°
2026-04-28 12:04 -29.20559 -41.58926 35120 ft 476 kts 13°
2026-04-28 12:04 -29.14522 -41.55835 35133 ft 478 kts 13°
2026-04-28 12:05 -29.08488 -41.52747 35124 ft 474 kts 13°
2026-04-28 12:05 -29.02418 -41.49650 35132 ft 477 kts 13°
2026-04-28 12:06 -28.96369 -41.46563 35123 ft 473 kts 14°
2026-04-28 12:06 -28.90340 -41.43495 35116 ft 477 kts 14°
2026-04-28 12:07 -28.84312 -41.40425 35117 ft 471 kts 14°
2026-04-28 12:07 -28.78277 -41.37362 35120 ft 475 kts 14°
2026-04-28 12:08 -28.72257 -41.34305 35102 ft 471 kts 13°
2026-04-28 12:08 -28.66286 -41.31280 35101 ft 474 kts 13°
2026-04-28 12:09 -28.60251 -41.28225 35100 ft 472 kts 14°
2026-04-28 12:09 -28.54275 -41.25205 35100 ft 471 kts 14°
2026-04-28 12:10 -28.48276 -41.22178 35098 ft 475 kts 14°
2026-04-28 12:10 -28.42251 -41.19138 35097 ft 471 kts 14°
2026-04-28 12:11 -28.36230 -41.16107 35098 ft 473 kts 14°
2026-04-28 12:11 -28.30251 -41.13098 35097 ft 470 kts 14°
2026-04-28 12:12 -28.24218 -41.10068 35098 ft 471 kts 14°
2026-04-28 12:12 -28.18229 -41.07063 35099 ft 472 kts 14°
2026-04-28 12:13 -28.12207 -41.04046 35102 ft 472 kts 15°
2026-04-28 12:13 -28.06238 -41.01057 35101 ft 469 kts 15°
2026-04-28 12:14 -28.00233 -40.98056 35096 ft 470 kts 15°
2026-04-28 12:14 -27.94216 -40.95052 35096 ft 469 kts 15°
2026-04-28 12:15 -27.88241 -40.92073 35110 ft 470 kts 15°
2026-04-28 12:15 -27.82201 -40.89065 35103 ft 470 kts 15°
2026-04-28 12:16 -27.76234 -40.86096 35103 ft 470 kts 15°
2026-04-28 12:16 -27.70186 -40.83092 35098 ft 473 kts 15°
2026-04-28 12:17 -27.64187 -40.80114 35098 ft 470 kts 15°
2026-04-28 12:17 -27.58153 -40.77124 35098 ft 474 kts 15°
2026-04-28 12:18 -27.52124 -40.74138 35095 ft 473 kts 15°
2026-04-28 12:18 -27.46086 -40.71153 35096 ft 474 kts 15°
2026-04-28 12:19 -27.40040 -40.68167 35094 ft 473 kts 15°
2026-04-28 12:19 -27.33990 -40.65183 35091 ft 472 kts 15°
2026-04-28 12:20 -27.27941 -40.62203 35091 ft 472 kts 16°
2026-04-28 12:20 -27.21868 -40.59215 35091 ft 475 kts 16°
2026-04-28 12:21 -27.15844 -40.56252 35091 ft 472 kts 16°
2026-04-28 12:21 -27.09761 -40.53268 35085 ft 476 kts 16°
2026-04-28 12:22 -27.03711 -40.50301 35085 ft 475 kts 16°
2026-04-28 12:22 -26.97607 -40.47311 35087 ft 478 kts 16°
2026-04-28 12:23 -26.91553 -40.44348 35087 ft 474 kts 16°
2026-04-28 12:23 -26.85493 -40.41387 35095 ft 476 kts 16°
2026-04-28 12:24 -26.79396 -40.38411 35093 ft 475 kts 17°
2026-04-28 12:24 -26.73332 -40.35456 35093 ft 478 kts 17°
2026-04-28 12:25 -26.67244 -40.32491 35078 ft 475 kts 16°
2026-04-28 12:25 -26.61179 -40.29542 35079 ft 478 kts 16°
2026-04-28 12:26 -26.55071 -40.26574 35078 ft 476 kts 17°
2026-04-28 12:26 -26.48969 -40.23614 35078 ft 477 kts 17°
2026-04-28 12:27 -26.42881 -40.20663 35076 ft 476 kts 17°
2026-04-28 12:27 -26.36779 -40.17710 35080 ft 476 kts 17°
2026-04-28 12:28 -26.30676 -40.14759 35080 ft 478 kts 17°
2026-04-28 12:28 -26.24577 -40.11813 35078 ft 476 kts 17°
2026-04-28 12:29 -26.15436 -40.07404 35076 ft 475 kts 17°
2026-04-28 12:30 -26.09327 -40.04462 35079 ft 475 kts 17°
2026-04-28 12:30 -26.03276 -40.01552 35078 ft 476 kts 17°
2026-04-28 12:31 -25.97165 -39.98570 35080 ft 478 kts 19°
2026-04-28 12:31 -25.91126 -39.95484 35076 ft 477 kts 19°
2026-04-28 12:32 -25.85062 -39.92394 35080 ft 478 kts 19°
2026-04-28 12:32 -25.78978 -39.89301 35079 ft 477 kts 19°
2026-04-28 12:33 -25.72952 -39.86244 35080 ft 479 kts 19°
2026-04-28 12:33 -25.66903 -39.83179 35079 ft 478 kts 19°
2026-04-28 12:34 -25.60777 -39.80080 35078 ft 478 kts 19°
2026-04-28 12:34 -25.54734 -39.77026 35074 ft 477 kts 19°
2026-04-28 12:35 -25.48670 -39.73967 35076 ft 479 kts 19°
2026-04-28 12:35 -25.42639 -39.70925 35073 ft 476 kts 19°
2026-04-28 12:36 -25.36569 -39.67870 35072 ft 478 kts 19°
2026-04-28 12:36 -25.30519 -39.64827 35071 ft 477 kts 19°
2026-04-28 12:37 -25.24483 -39.61795 35072 ft 476 kts 19°
2026-04-28 12:37 -25.18421 -39.58752 35068 ft 477 kts 19°
2026-04-28 12:38 -25.12336 -39.55703 35070 ft 478 kts 19°
2026-04-28 12:38 -25.06318 -39.52689 35065 ft 477 kts 20°
2026-04-28 12:39 -25.00230 -39.49644 35067 ft 478 kts 20°
2026-04-28 12:39 -24.94178 -39.46619 35061 ft 476 kts 19°
2026-04-28 12:40 -24.88172 -39.43623 35072 ft 478 kts 20°
2026-04-28 12:40 -24.82068 -39.40579 35066 ft 477 kts 20°
2026-04-28 12:41 -24.76008 -39.37561 35072 ft 478 kts 20°
2026-04-28 12:41 -24.69927 -39.34535 35065 ft 478 kts 20°
2026-04-28 12:42 -24.63907 -39.31543 35059 ft 477 kts 20°
2026-04-28 12:42 -24.57815 -39.28519 35062 ft 477 kts 20°
2026-04-28 12:43 -24.51735 -39.25505 35060 ft 478 kts 20°
2026-04-28 12:43 -24.45669 -39.22499 35060 ft 478 kts 20°
2026-04-28 12:44 -24.39608 -39.19500 35059 ft 478 kts 20°
2026-04-28 12:44 -24.33518 -39.16489 35058 ft 478 kts 20°
2026-04-28 12:45 -24.27447 -39.13491 35060 ft 477 kts 20°
2026-04-28 12:45 -24.21396 -39.10507 35059 ft 478 kts 20°
2026-04-28 12:46 -24.15312 -39.07509 35058 ft 478 kts 20°
2026-04-28 12:46 -24.09232 -39.04516 35058 ft 478 kts 20°
2026-04-28 12:47 -24.03137 -39.01519 35059 ft 477 kts 20°
2026-04-28 12:47 -23.97087 -38.98518 35061 ft 478 kts 21°
2026-04-28 12:48 -23.91027 -38.95432 35060 ft 479 kts 21°
2026-04-28 12:48 -23.84905 -38.92320 35065 ft 479 kts 21°
2026-04-28 12:49 -23.78839 -38.89242 35066 ft 479 kts 21°
2026-04-28 12:49 -23.72787 -38.86177 35067 ft 479 kts 21°
2026-04-28 12:50 -23.66726 -38.83110 35068 ft 478 kts 21°
2026-04-28 12:50 -23.60646 -38.80038 35069 ft 479 kts 21°
2026-04-28 12:51 -23.54596 -38.76984 35075 ft 479 kts 21°
2026-04-28 12:51 -23.48550 -38.73936 35076 ft 479 kts 21°
2026-04-28 12:52 -23.42460 -38.70868 35079 ft 479 kts 21°
2026-04-28 12:52 -23.36427 -38.67833 35080 ft 479 kts 21°
2026-04-28 12:53 -23.30342 -38.64774 35079 ft 479 kts 21°
2026-04-28 12:53 -23.24286 -38.61733 35082 ft 480 kts 21°
2026-04-28 12:54 -23.18191 -38.58675 35082 ft 479 kts 21°
2026-04-28 12:54 -23.12105 -38.55626 35083 ft 479 kts 21°
2026-04-28 12:55 -23.06032 -38.52584 35085 ft 479 kts 21°
2026-04-28 12:55 -22.99980 -38.49558 35083 ft 478 kts 21°
2026-04-28 12:56 -22.93875 -38.46507 35085 ft 479 kts 22°
2026-04-28 12:56 -22.87793 -38.43472 35088 ft 479 kts 22°
2026-04-28 12:57 -22.81695 -38.40431 35087 ft 479 kts 22°
2026-04-28 12:57 -22.75628 -38.37408 35089 ft 479 kts 22°
2026-04-28 12:58 -22.69522 -38.34369 35084 ft 479 kts 21°
2026-04-28 12:58 -22.63474 -38.31363 35082 ft 478 kts 21°
2026-04-28 12:59 -22.57419 -38.28355 35081 ft 479 kts 21°
2026-04-28 12:59 -22.51336 -38.25336 35081 ft 479 kts 21°
2026-04-28 13:00 -22.45293 -38.22340 35083 ft 479 kts 21°
2026-04-28 13:00 -22.39203 -38.19324 35080 ft 478 kts 21°
2026-04-28 13:01 -22.33148 -38.16328 35081 ft 479 kts 22°
2026-04-28 13:01 -22.27063 -38.13320 35080 ft 478 kts 22°
2026-04-28 13:02 -22.20997 -38.10325 35082 ft 477 kts 22°
2026-04-28 13:02 -22.14938 -38.07335 35082 ft 477 kts 22°
2026-04-28 13:03 -22.08905 -38.04362 35083 ft 477 kts 22°
2026-04-28 13:03 -22.02830 -38.01370 35082 ft 478 kts 22°
2026-04-28 13:04 -21.96768 -37.98342 35083 ft 479 kts 23°
2026-04-28 13:04 -21.90760 -37.95241 35081 ft 478 kts 23°
2026-04-28 13:05 -21.84744 -37.92142 35084 ft 477 kts 23°
2026-04-28 13:05 -21.78749 -37.89061 35084 ft 478 kts 23°
2026-04-28 13:06 -21.72713 -37.85963 35084 ft 478 kts 23°
2026-04-28 13:06 -21.67847 -37.83469 35083 ft 478 kts 23°